Wiley, CO

9:09 PM MDT on September 29, 2016 (GMT -0600)
Lamar Municipal

Weather History for KLAA - August, 2014

Change the Weather History Date:

Friday, August 15, 2014

  Actual Average Record
Temperature  
Mean Temperature 79 °F 76 °F  
Max Temperature 96 °F 91 °F 108 °F (1937)
Min Temperature 62 °F 61 °F 44 °F (1939)
Degree Days  
Heating Degree Days 0 0  
Month to date heating degree days 0 0  
Since 1 June heating degree days 9 22  
Since 1 July heating degree days 0 2  
Cooling Degree Days 14 11  
Month to date cooling degree days 175 177  
Year to date cooling degree days 970 841  
Since 1 June cooling degree days 877 781  
Growing Degree Days 28 (Base 50)    
Moisture  
Dew Point 57 °F    
Average Humidity 54    
Maximum Humidity 84    
Minimum Humidity 24    
Precipitation  
Precipitation T in 0.07 in 1.73 in (1942)
Month to date precipitation 0.64  
Year to date precipitation 8.84  
Sea Level Pressure  
Sea Level Pressure 29.84 in    
Wind  
Wind Speed 7 mph (WNW)    
Max Wind Speed 14 mph    
Max Gust Speed 20 mph    
Visibility 10 miles    
Events Thunderstorm    
T = Trace of Precipitation, MM = Missing Value Source: NWS Daily Summary

Daily Weather History Graph

Daily Weather History Graph

Search for Another Location

Airport or City:

Trip Planner

Search our weather history database for the weather conditions in past years. The results will help you decide how hot, cold, wet, or windy it might be!

Date:

Astronomy

Aug. 15, 2014 Rise Set
Actual Time 6:05 AM MDT 7:43 PM MDT
Civil Twilight 5:37 AM MDT 8:11 PM MDT
Nautical Twilight 5:03 AM MDT 8:45 PM MDT
Astronomical Twilight 4:27 AM MDT 9:21 PM MDT
Moon 10:54 PM MDT (8/15) 11:44 AM MDT (8/15)
Length of Visible Light 14h 34m
Length of Day
13h 38m
Waning Gibbous, 68% of the Moon is Illuminated
Aug 15
Waning Gibbous
Aug 17
Last Quarter
Aug 25
New
Sep 2
First Quarter
Sep 8
Full

Hourly Weather History & Observations

Time (MDT) Temp. Heat Index Dew Point Humidity Pressure Visibility Wind Dir Wind Speed Gust Speed Precip Events Conditions
12:53 AM 71.1 °F - 60.1 °F 68% 29.80 in 10.0 mi SW 5.8 mph - N/A   Clear
1:53 AM 70.0 °F - 60.1 °F 71% 29.79 in 10.0 mi WSW 3.5 mph - N/A   Clear
2:53 AM 69.1 °F - 60.1 °F 73% 29.79 in 10.0 mi South 6.9 mph - N/A   Clear
3:53 AM 68.0 °F - 61.0 °F 78% 29.80 in 10.0 mi Calm Calm - N/A   Clear
4:53 AM 66.9 °F - 60.1 °F 79% 29.80 in 10.0 mi SW 5.8 mph - N/A   Clear
5:53 AM 64.0 °F - 59.0 °F 84% 29.83 in 10.0 mi SSW 4.6 mph - N/A   Clear
6:53 AM 62.1 °F - 57.9 °F 86% 29.85 in 9.0 mi SSW 6.9 mph - N/A   Clear
8:53 AM 73.0 °F - 59.0 °F 61% 29.88 in 9.0 mi WSW 6.9 mph - N/A   Clear
9:53 AM 79.0 °F - 59.0 °F 50% 29.88 in 10.0 mi West 4.6 mph - N/A   Clear
10:53 AM 84.9 °F 83.9 °F 57.0 °F 38% 29.87 in 9.0 mi NW 6.9 mph - N/A   Clear
11:53 AM 89.1 °F 87.7 °F 57.0 °F 34% 29.85 in 9.0 mi NNW 8.1 mph - N/A   Clear
12:53 PM 91.0 °F 89.2 °F 55.9 °F 30% 29.83 in 10.0 mi NW 8.1 mph - N/A   Clear
1:53 PM 91.9 °F 89.5 °F 53.1 °F 27% 29.82 in 10.0 mi NNW 9.2 mph - N/A   Clear
2:53 PM 95.0 °F 92.7 °F 54.0 °F 25% 29.79 in 10.0 mi ENE 9.2 mph 19.6 mph N/A   Clear
3:53 PM 93.9 °F 91.7 °F 54.0 °F 26% 29.78 in 10.0 mi NE 6.9 mph - N/A   Clear
4:53 PM 93.9 °F - 52.0 °F 24% 29.77 in 10.0 mi North 5.8 mph - N/A   Clear
5:53 PM 93.9 °F - 52.0 °F 24% 29.76 in 10.0 mi NE 5.8 mph - N/A   Clear
6:53 PM 91.9 °F - 52.0 °F 26% 29.78 in 10.0 mi NE 3.5 mph - N/A   Clear
7:53 PM 81.0 °F 80.8 °F 55.9 °F 42% 29.81 in 9.0 mi East 9.2 mph - N/A   Clear
8:53 PM 79.0 °F - 54.0 °F 42% 29.82 in 10.0 mi ESE 8.1 mph - N/A   Clear
9:38 PM 75.9 °F - 57.9 °F 54% 30.00 in 9.0 mi NNW 9.2 mph - N/A Thunderstorm Thunderstorm
9:53 PM 78.1 °F - 55.9 °F 46% 29.85 in 9.0 mi NNW 10.4 mph - N/A   Mostly Cloudy
10:04 PM 80.1 °F 80.0 °F 54.0 °F 40% 30.01 in 9.0 mi NNW 11.5 mph - N/A Thunderstorm Mostly Cloudy
11:35 PM 73.9 °F - 57.0 °F 55% 30.04 in 10.0 mi SW 11.5 mph - 0.00 in Thunderstorm Mostly Cloudy
11:53 PM 72.0 °F - 59.0 °F 64% 29.88 in 10.0 mi SSW 13.8 mph - 0.00 in   Scattered Clouds